• In Belarus
  • List of Countries
  • For 7 days
  • Water Temperature
  • Weather Map
  • Weather Widgets
  • user-avatar
    Login

    Hourly Weather Amman

    Today, 27 May, Wednesday

    Time Temperature Precipitation Wind Pressure Humidity
    00:00 +22°C° 0 mm 1 mps 690 mmHg 35%
    01:00 +22°C° 0 mm 1 mps 690 mmHg 36%
    02:00 +21°C° 0 mm 1 mps 690 mmHg 37%
    03:00 +21°C° 0 mm 1 mps 690 mmHg 38%
    04:00 +20°C° 0 mm 1 mps 690 mmHg 39%
    05:00 +20°C° 0 mm 1 mps 690 mmHg 40%
    06:00 +22°C° 0 mm 1 mps 691 mmHg 36%
    07:00 +23°C° 0 mm 1 mps 691 mmHg 31%
    08:00 +26°C° 0 mm 1 mps 691 mmHg 28%
    09:00 +27°C° 0 mm 2 mps 691 mmHg 26%
    10:00 +28°C° 0 mm 2 mps 692 mmHg 24%
    11:00 +29°C° 0 mm 2 mps 692 mmHg 23%
    12:00 +30°C° 0 mm 4 mps 691 mmHg 23%
    13:00 +30°C° 0 mm 6 mps 691 mmHg 23%
    14:00 +32°C° 0 mm 7 mps 691 mmHg 23%
    15:00 +29°C° 0 mm 7 mps 691 mmHg 26%
    16:00 +28°C° 0 mm 7 mps 691 mmHg 30%
    17:00 +26°C° 0 mm 7 mps 690 mmHg 33%
    18:00 +23°C° 0 mm 6 mps 690 mmHg 36%
    19:00 +22°C° 0 mm 6 mps 691 mmHg 40%
    20:00 +20°C° 0 mm 5 mps 691 mmHg 43%
    21:00 +19°C° 0 mm 4 mps 691 mmHg 45%
    22:00 +18°C° 0 mm 4 mps 691 mmHg 46%
    23:00 +18°C° 0 mm 4 mps 691 mmHg 48%

    Tomorrow, 28 May, Thursday

    Time Temperature Precipitation Wind Pressure Humidity
    00:00 +17°C° 0 mm 4 mps 691 mmHg 53%
    01:00 +16°C° 0 mm 3 mps 690 mmHg 57%
    02:00 +16°C° 0 mm 3 mps 690 mmHg 62%
    03:00 +14°C° 0 mm 3 mps 690 mmHg 68%
    04:00 +14°C° 0 mm 3 mps 690 mmHg 74%
    05:00 +13°C° 0 mm 4 mps 691 mmHg 81%
    06:00 +14°C° 0 mm 4 mps 691 mmHg 76%
    07:00 +16°C° 0 mm 5 mps 691 mmHg 70%
    08:00 +17°C° 0 mm 5 mps 691 mmHg 65%
    09:00 +19°C° 0 mm 5 mps 691 mmHg 58%
    10:00 +21°C° 0 mm 6 mps 692 mmHg 51%
    11:00 +22°C° 0 mm 6 mps 692 mmHg 43%
    12:00 +23°C° 0 mm 6 mps 692 mmHg 38%
    13:00 +24°C° 0 mm 7 mps 692 mmHg 34%
    14:00 +26°C° 0 mm 7 mps 691 mmHg 29%
    15:00 +24°C° 0 mm 7 mps 691 mmHg 31%
    16:00 +23°C° 0 mm 6 mps 691 mmHg 34%
    17:00 +22°C° 0 mm 6 mps 691 mmHg 36%
    18:00 +21°C° 0 mm 6 mps 691 mmHg 42%
    19:00 +19°C° 0 mm 5 mps 691 mmHg 48%
    20:00 +17°C° 0 mm 4 mps 691 mmHg 53%
    21:00 +17°C° 0 mm 4 mps 691 mmHg 58%
    22:00 +15°C° 0 mm 4 mps 691 mmHg 62%
    23:00 +14°C° 0 mm 4 mps 691 mmHg 67%

    Day after tomorrow, 29 May, Friday

    Time Temperature Precipitation Wind Pressure Humidity
    00:00 +13°C° 0 mm 4 mps 691 mmHg 69%
    01:00 +13°C° 0 mm 4 mps 691 mmHg 72%
    02:00 +12°C° 0 mm 3 mps 690 mmHg 74%
    03:00 +12°C° 0 mm 3 mps 690 mmHg 77%
    04:00 +12°C° 0 mm 3 mps 691 mmHg 79%
    05:00 +13°C° 0 mm 2 mps 691 mmHg 82%
    06:00 +13°C° 0 mm 3 mps 691 mmHg 73%
    07:00 +14°C° 0 mm 4 mps 692 mmHg 64%
    08:00 +16°C° 0 mm 5 mps 692 mmHg 55%
    09:00 +17°C° 0 mm 5 mps 692 mmHg 49%
    10:00 +19°C° 0 mm 6 mps 693 mmHg 44%
    11:00 +20°C° 0 mm 6 mps 693 mmHg 38%
    12:00 +21°C° 0 mm 6 mps 693 mmHg 35%
    13:00 +22°C° 0 mm 7 mps 693 mmHg 31%
    14:00 +23°C° 0 mm 7 mps 693 mmHg 27%
    15:00 +22°C° 0 mm 7 mps 692 mmHg 32%
    16:00 +21°C° 0 mm 7 mps 692 mmHg 37%
    17:00 +20°C° 0 mm 8 mps 692 mmHg 42%
    18:00 +17°C° 0 mm 6 mps 692 mmHg 49%
    19:00 +16°C° 0 mm 5 mps 692 mmHg 56%
    20:00 +16°C° 0 mm 3 mps 692 mmHg 63%
    21:00 +14°C° 0 mm 3 mps 692 mmHg 66%
    22:00 +15°C° 0 mm 2 mps 692 mmHg 70%
    23:00 +14°C° 0 mm 1 mps 692 mmHg 73%

    30 May, Saturday

    Time Temperature Precipitation Wind Pressure Humidity
    00:00 +14°C° 0 mm 1 mps 692 mmHg 74%
    01:00 +13°C° 0 mm 1 mps 691 mmHg 76%
    02:00 +13°C° 0 mm 1 mps 691 mmHg 77%
    03:00 +12°C° 0 mm 1 mps 691 mmHg 78%
    04:00 +11°C° 0 mm 0 mps 691 mmHg 80%
    05:00 +11°C° 0 mm 0 mps 691 mmHg 81%
    06:00 +13°C° 0 mm 0 mps 692 mmHg 69%
    07:00 +14°C° 0 mm 0 mps 692 mmHg 57%
    08:00 +18°C° 0 mm 1 mps 693 mmHg 46%
    09:00 +20°C° 0 mm 1 mps 693 mmHg 38%
    10:00 +22°C° 0 mm 1 mps 693 mmHg 31%
    11:00 +23°C° 0 mm 2 mps 693 mmHg 24%
    12:00 +24°C° 0 mm 2 mps 693 mmHg 21%
    13:00 +25°C° 0 mm 3 mps 693 mmHg 19%
    14:00 +26°C° 0 mm 3 mps 692 mmHg 17%
    15:00 +26°C° 0 mm 4 mps 692 mmHg 19%
    16:00 +25°C° 0 mm 4 mps 692 mmHg 22%
    17:00 +25°C° 0 mm 5 mps 692 mmHg 24%
    18:00 +22°C° 0 mm 4 mps 692 mmHg 32%
    19:00 +21°C° 0 mm 3 mps 692 mmHg 39%
    20:00 +19°C° 0 mm 3 mps 692 mmHg 46%
    21:00 +19°C° 0 mm 2 mps 692 mmHg 48%
    22:00 +18°C° 0 mm 2 mps 692 mmHg 50%
    23:00 +17°C° 0 mm 2 mps 692 mmHg 52%

    31 May, Sunday

    Time Temperature Precipitation Wind Pressure Humidity
    00:00 +18°C° 0 mm 1 mps 692 mmHg 52%
    01:00 +16°C° 0 mm 1 mps 691 mmHg 52%
    02:00 +16°C° 0 mm 1 mps 691 mmHg 52%
    03:00 +16°C° 0 mm 1 mps 691 mmHg 51%
    04:00 +15°C° 0 mm 1 mps 691 mmHg 51%
    05:00 +14°C° 0 mm 0 mps 691 mmHg 50%
    06:00 +18°C° 0 mm 1 mps 691 mmHg 42%
    07:00 +20°C° 0 mm 1 mps 692 mmHg 33%
    08:00 +22°C° 0 mm 1 mps 692 mmHg 25%
    09:00 +24°C° 0 mm 2 mps 692 mmHg 22%
    10:00 +26°C° 0 mm 2 mps 692 mmHg 19%
    11:00 +28°C° 0 mm 2 mps 692 mmHg 16%
    12:00 +29°C° 0 mm 2 mps 692 mmHg 16%
    13:00 +30°C° 0 mm 2 mps 691 mmHg 15%
    14:00 +31°C° 0 mm 2 mps 691 mmHg 14%
    15:00 +30°C° 0 mm 3 mps 690 mmHg 17%
    16:00 +30°C° 0 mm 4 mps 690 mmHg 20%
    17:00 +29°C° 0 mm 6 mps 690 mmHg 23%
    18:00 +27°C° 0 mm 5 mps 690 mmHg 29%
    19:00 +25°C° 0 mm 4 mps 690 mmHg 35%
    20:00 +22°C° 0 mm 3 mps 690 mmHg 41%
    21:00 +21°C° 0 mm 3 mps 690 mmHg 40%
    22:00 +20°C° 0 mm 3 mps 690 mmHg 40%
    23:00 +19°C° 0 mm 3 mps 690 mmHg 40%

    1 June, Monday

    Time Temperature Precipitation Wind Pressure Humidity
    00:00 +19°C° 0 mm 3 mps 690 mmHg 42%
    01:00 +18°C° 0 mm 2 mps 690 mmHg 44%
    02:00 +17°C° 0 mm 2 mps 689 mmHg 46%
    03:00 +17°C° 0 mm 2 mps 689 mmHg 47%
    04:00 +17°C° 0 mm 2 mps 689 mmHg 49%
    05:00 +16°C° 0 mm 2 mps 689 mmHg 50%
    06:00 +18°C° 0 mm 2 mps 689 mmHg 45%
    07:00 +19°C° 0 mm 2 mps 690 mmHg 40%
    08:00 +21°C° 0 mm 3 mps 690 mmHg 34%
    09:00 +24°C° 0 mm 3 mps 690 mmHg 30%
    10:00 +26°C° 0 mm 3 mps 690 mmHg 25%
    11:00 +28°C° 0 mm 4 mps 690 mmHg 20%
    12:00 +29°C° 0 mm 5 mps 690 mmHg 19%
    13:00 +29°C° 0 mm 6 mps 690 mmHg 18%
    14:00 +30°C° 0 mm 7 mps 690 mmHg 16%
    15:00 +30°C° 0 mm 6 mps 690 mmHg 18%
    16:00 +29°C° 0 mm 6 mps 690 mmHg 20%
    17:00 +28°C° 0 mm 6 mps 689 mmHg 21%
    18:00 +27°C° 0 mm 4 mps 689 mmHg 24%
    19:00 +25°C° 0 mm 3 mps 689 mmHg 26%
    20:00 +24°C° 0 mm 2 mps 689 mmHg 29%
    21:00 +24°C° 0 mm 2 mps 689 mmHg 28%
    22:00 +24°C° 0 mm 2 mps 689 mmHg 27%
    23:00 +23°C° 0 mm 2 mps 689 mmHg 27%
    Show more